GW1117 Weather Reports


Display with metric or nautical units.
time (UTC)temp
F
wind
direction
speed
MPH
gust
MPH
rain 1hr
in
rain 24hr
in
rain mn
in
humidity
%
barometer
mb
20260505111521 59 156 5.0 11.0 0.05 0.52 0.52 94 957.8
20260505111023 59 136 6.0 11.0 0.04 0.51 0.51 94 958.0
20260505110522 59 152 4.0 7.0 0.06 0.51 0.51 94 958.2
20260505102017 59 162 3.0 5.0 0.10 0.48 0.48 93 959.3
20260505101517 59 207 2.0 4.0 0.11 0.47 0.47 93 959.2
20260505101018 59 233 0.0 4.0 0.12 0.47 0.47 93 959.2
20260505100517 59 263 0.0 4.0 0.12 0.45 0.45 93 959.0
20260505100019 59 339 1.0 6.0 0.13 0.44 0.44 92 958.8
20260505095517 59 286 1.0 6.0 0.15 0.44 0.44 92 959.0
20260505095017 59 329 2.0 6.0 0.15 0.42 0.42 92 958.8
20260505094516 59 321 3.0 6.0 0.17 0.42 0.42 92 959.1
20260505094016 59 286 2.0 5.0 0.20 0.41 0.41 92 958.9
20260505093515 59 5 3.0 5.0 0.28 0.41 0.41 91 958.4
20260505093015 59 360 1.0 5.0 0.34 0.39 0.39 91 958.4
20260505092515 59 280 3.0 5.0 0.35 0.39 0.39 91 959.5
20260505092015 59 5 2.0 4.0 0.34 0.38 0.38 91 958.9
20260505091515 59 13 1.0 3.0 0.33 0.36 0.36 91 958.7
20260505091016 59 323 0.0 4.0 0.32 0.34 0.34 90 958.9
20260505090514 59 323 2.0 6.0 0.30 0.32 0.32 90 959.4
20260505090033 59 277 2.0 7.0 0.28 0.30 0.30 89 959.6
20260505085514 59 327 2.0 7.0 0.28 0.28 0.28 89 959.4
20260505085013 59 281 4.0 9.0 0.26 0.26 0.26 89 959.4
20260505084513 59 284 2.0 11.0 0.24 0.24 0.24 88 959.5
20260505084012 59 288 5.0 13.0 0.20 0.20 0.20 88 959.6
20260505083513 59 259 4.0 11.0 0.12 0.12 0.12 88 959.4
20260505083010 59 258 3.0 7.0 0.05 0.05 0.05 87 959.1
20260505082512 59 277 0.0 4.0 0.04 0.04 0.04 87 958.8
20260505082009 59 298 1.0 4.0 0.04 0.04 0.04 87 959.1
20260505081509 59 302 2.0 4.0 0.03 0.03 0.03 86 959.1
20260505081013 59 273 2.0 4.0 0.02 0.02 0.02 86 958.9
20260505080508 59 285 2.0 4.0 0.02 0.02 0.02 85 958.9
20260505080106 59 321 1.0 3.0 0.01 0.01 0.01 85 959.0
20260505075505 59 315 1.0 3.0 0.00 0.00 0.00 84 959.1
20260505075004 60 321 2.0 3.0 0.00 0.00 0.00 83 959.1
20260505074504 60 250 1.0 3.0 0.00 0.00 0.00 83 959.0
20260505074003 60 152 0.0 2.0 0.00 0.00 0.00 82 958.8
20260505073503 60 131 0.0 2.0 0.00 0.00 0.00 81 958.9
20260505073002 60 128 0.0 2.0 0.00 0.00 0.00 80 958.3
20260505072600 61 129 0.0 0.0 0.00 0.00 0.00 79 958.3
20260505072103 61 129 0.0 1.0 0.00 0.00 0.00 78 958.4
20260505071558 61 129 0.0 1.0 0.00 0.00 0.00 78 958.7
20260505071058 61 129 0.0 2.0 0.00 0.00 0.00 77 958.8
20260505070557 61 129 0.0 1.0 0.00 0.00 0.00 76 958.8
20260505070056 62 129 0.0 3.0 0.00 0.00 0.00 75 958.8
20260505065557 62 129 1.0 4.0 0.00 0.00 0.00 74 958.7
20260505065058 62 134 2.0 4.0 0.00 0.00 0.00 74 958.8
20260505064555 62 133 2.0 4.0 0.00 0.00 0.00 74 958.8
20260505064054 63 128 1.0 4.0 0.00 0.00 0.00 74 959.0
20260505063554 62 127 1.0 4.0 0.00 0.00 0.00 74 959.0
20260505063054 62 131 2.0 4.0 0.00 0.00 0.00 74 959.0
20260505062553 62 134 1.0 3.0 0.00 0.00 0.00 74 959.3
20260505062053 62 134 1.0 3.0 0.00 0.00 0.00 74 959.2
20260505061553 62 133 1.0 3.0 0.00 0.00 0.00 74 959.5
20260505061052 62 133 0.0 2.0 0.00 0.00 0.00 74 959.4
20260505060552 62 133 1.0 3.0 0.00 0.00 0.00 74 959.5
20260505060052 62 126 0.0 3.0 0.00 0.00 0.00 74 959.6
20260505055552 62 123 2.0 4.0 0.00 0.00 0.00 74 959.4
20260505055052 62 121 2.0 5.0 0.00 0.00 0.00 74 959.4
20260505054556 62 121 3.0 5.0 0.00 0.00 0.00 74 959.4
20260505054050 62 121 1.0 4.0 0.00 0.00 0.00 74 959.3
20260505053550 62 126 2.0 4.0 0.00 0.00 0.00 74 959.2
20260505053049 62 123 2.0 4.0 0.00 0.00 0.00 74 959.2
20260505052551 62 118 2.0 6.0 0.00 0.00 0.00 73 959.2
20260505052048 62 125 3.0 6.0 0.00 0.00 0.00 73 959.3
20260505051547 62 122 3.0 5.0 0.00 0.00 0.00 73 959.4
20260505051047 62 118 3.0 6.0 0.00 0.00 0.00 73 959.5
20260505050545 63 126 1.0 4.0 0.00 0.00 0.00 73 959.7
20260505041544 64 126 2.0 5.0 0.00 0.00 0.00 70 960.0
20260505041042 64 112 2.0 5.0 0.00 0.00 0.00 69 960.0
20260505040542 64 111 2.0 4.0 0.00 0.00 0.00 69 960.0
20260505040042 65 115 2.0 5.0 0.00 0.00 0.00 69 960.0
20260505035541 65 120 3.0 5.0 0.00 0.00 0.00 68 960.1
20260505035040 65 121 1.0 4.0 0.00 0.00 0.00 68 960.2
20260505034540 65 102 2.0 4.0 0.00 0.00 0.00 67 960.3
20260505034040 66 132 2.0 6.0 0.00 0.00 0.00 67 960.4
20260505033540 66 128 2.0 4.0 0.00 0.00 0.00 67 960.4
20260505033042 66 132 1.0 5.0 0.00 0.00 0.00 67 960.4
20260505032542 66 127 2.0 4.0 0.00 0.00 0.00 66 960.5
20260505032039 66 145 2.0 6.0 0.00 0.00 0.00 66 960.6
20260505031552 66 138 2.0 6.0 0.00 0.00 0.00 66 960.6
20260505031042 66 129 3.0 6.0 0.00 0.00 0.00 65 960.5
20260505030539 67 140 2.0 8.0 0.00 0.00 0.00 65 960.5
20260505030041 67 147 3.0 8.0 0.00 0.00 0.00 65 960.5
20260505025540 67 137 3.0 7.0 0.00 0.00 0.00 65 960.4
20260505025039 67 138 2.0 7.0 0.00 0.00 0.00 65 960.4
20260505024547 67 149 3.0 7.0 0.00 0.00 0.00 65 960.4
20260505024037 67 149 3.0 8.0 0.00 0.00 0.00 64 960.4
20260505023537 67 161 3.0 8.0 0.00 0.00 0.00 64 960.3
20260505023042 67 147 3.0 8.0 0.00 0.00 0.00 64 960.1
20260505022537 67 161 3.0 8.0 0.00 0.00 0.00 63 960.0
20260505022037 67 181 3.0 6.0 0.00 0.00 0.00 63 960.0
20260505021537 67 147 2.0 7.0 0.00 0.00 0.00 63 959.8
20260505021036 68 142 3.0 8.0 0.00 0.00 0.00 63 959.9
20260505020536 68 142 2.0 8.0 0.00 0.00 0.00 63 959.8
20260505020035 68 163 3.0 7.0 0.00 0.00 0.00 62 959.7
20260505015534 68 168 2.0 9.0 0.00 0.00 0.00 61 959.7
20260505015134 69 157 3.0 9.0 0.00 0.00 0.00 61 959.6
20260505014551 69 141 3.0 8.0 0.00 0.00 0.00 61 959.5
20260505014033 69 184 4.0 9.0 0.00 0.00 0.00 60 959.4
20260505013533 69 146 4.0 11.0 0.00 0.00 0.00 60 959.3
20260505013033 70 172 6.0 14.0 0.00 0.00 0.00 59 959.4
20260505012532 70 136 5.0 16.0 0.00 0.00 0.00 59 959.2
20260505012033 70 167 8.0 16.0 0.00 0.00 0.00 59 959.3
20260505011536 70 174 6.0 11.0 0.00 0.00 0.00 59 959.2
20260505011031 70 167 6.0 11.0 0.00 0.00 0.00 59 959.2
20260505010532 70 163 5.0 11.0 0.00 0.00 0.00 59 959.0
20260505010031 71 150 4.0 9.0 0.00 0.00 0.00 59 959.1
20260505005632 71 157 4.0 10.0 0.00 0.00 0.00 59 959.0
20260505005031 71 120 6.0 12.0 0.00 0.00 0.00 58 958.8
20260505004531 71 164 4.0 12.0 0.00 0.00 0.00 58 958.8
20260505004031 72 144 2.0 7.0 0.00 0.00 0.00 57 958.8
20260505003535 72 136 3.0 8.0 0.00 0.00 0.00 56 958.8
20260505003030 72 142 2.0 10.0 0.00 0.00 0.00 55 958.7
20260505002530 73 146 5.0 10.0 0.00 0.00 0.00 55 958.6
20260505002030 73 135 5.0 12.0 0.00 0.00 0.00 54 958.6
20260505001530 73 133 6.0 12.0 0.00 0.00 0.00 54 958.7
20260505001029 73 142 6.0 12.0 0.00 0.00 0.00 54 958.6
20260505000529 73 178 5.0 16.0 0.00 0.00 0.00 53 958.5
20260505000029 74 164 7.0 15.0 0.00 0.00 0.00 53 958.4
20260504235529 74 155 8.0 12.0 0.00 0.00 0.00 53 958.3
20260504235029 74 134 5.0 11.0 0.00 0.00 0.00 53 958.3
20260504234528 74 146 5.0 10.0 0.00 0.00 0.00 52 958.4
20260504234027 75 165 4.0 13.0 0.00 0.00 0.00 52 958.5
20260504233526 75 167 7.0 13.0 0.00 0.00 0.00 51 958.7
20260504233028 75 115 6.0 11.0 0.00 0.00 0.00 51 958.8
20260504232528 75 136 6.0 16.0 0.00 0.00 0.00 50 958.8
20260504232025 75 160 8.0 16.0 0.00 0.00 0.00 50 958.9
20260504231525 75 183 6.0 11.0 0.00 0.00 0.00 50 959.0
20260504231025 76 180 6.0 13.0 0.00 0.00 0.00 49 959.0
20260504230524 76 149 7.0 16.0 0.00 0.00 0.00 49 959.0
20260504230024 76 169 5.0 11.0 0.00 0.00 0.00 48 959.1
20260504225523 76 140 5.0 10.0 0.00 0.00 0.00 48 959.0
20260504225023 77 164 6.0 18.0 0.00 0.00 0.00 48 959.0
20260504224532 77 155 6.0 16.0 0.00 0.00 0.00 47 959.0
20260504224024 77 192 7.0 17.0 0.00 0.00 0.00 46 959.0
20260504223524 77 229 8.0 17.0 0.00 0.00 0.00 46 959.2
20260504223023 77 172 6.0 12.0 0.00 0.00 0.00 45 959.1
20260504222522 77 182 5.0 24.0 0.00 0.00 0.00 46 959.1
20260504222024 78 188 10.0 24.0 0.00 0.00 0.00 45 959.2
20260504221523 78 188 7.0 16.0 0.00 0.00 0.00 46 959.2
20260504221022 78 155 10.0 16.0 0.00 0.00 0.00 45 959.2
20260504220522 78 185 7.0 16.0 0.00 0.00 0.00 45 959.1
20260504220021 78 134 7.0 18.0 0.00 0.00 0.00 45 959.2
20260504215520 78 142 11.0 20.0 0.00 0.00 0.00 45 959.2
20260504215020 79 161 10.0 19.0 0.00 0.00 0.00 45 959.0
20260504214525 79 192 9.0 22.0 0.00 0.00 0.00 45 959.2
20260504214022 79 217 11.0 21.0 0.00 0.00 0.00 45 959.3
20260504213522 79 150 8.0 15.0 0.00 0.00 0.00 45 959.2
20260504213022 79 178 6.0 15.0 0.00 0.00 0.00 43 959.2
20260504212519 79 161 10.0 15.0 0.00 0.00 0.00 43 959.3
20260504212022 79 140 6.0 17.0 0.00 0.00 0.00 43 959.4
20260504211521 79 104 8.0 16.0 0.00 0.00 0.00 43 959.4
20260504211018 79 192 9.0 16.0 0.00 0.00 0.00 42 959.4
20260504210518 79 236 9.0 17.0 0.00 0.00 0.00 41 959.5
20260504210031 79 149 9.0 17.0 0.00 0.00 0.00 42 959.5
20260504205517 79 186 10.0 18.0 0.00 0.00 0.00 43 959.8
20260504205018 79 209 11.0 18.0 0.00 0.00 0.00 43 959.7
20260504204528 79 151 9.0 18.0 0.00 0.00 0.00 43 959.5
20260504204015 79 178 8.0 21.0 0.00 0.00 0.00 44 959.7
20260504203515 79 155 13.0 21.0 0.00 0.00 0.00 44 959.8
20260504203021 79 159 11.0 22.0 0.00 0.00 0.00 43 959.9
20260504202514 79 198 10.0 22.0 0.00 0.00 0.00 44 959.9
20260504202013 79 194 12.0 22.0 0.00 0.00 0.00 43 960.0
20260504201513 80 193 13.0 23.0 0.00 0.00 0.00 43 960.0
20260504201012 79 220 9.0 23.0 0.00 0.00 0.00 44 960.1
20260504200511 79 196 9.0 21.0 0.00 0.00 0.00 44 960.1
20260504200010 79 193 8.0 23.0 0.00 0.00 0.00 44 960.1
20260504195509 79 153 9.0 18.0 0.00 0.00 0.00 45 960.1
20260504195009 79 173 11.0 18.0 0.00 0.00 0.00 44 960.1
20260504194509 79 136 10.0 18.0 0.00 0.00 0.00 44 960.3
20260504194009 79 193 10.0 27.0 0.00 0.00 0.00 44 960.4
20260504193508 79 176 12.0 27.0 0.00 0.00 0.00 43 960.6
20260504193007 79 225 7.0 22.0 0.00 0.00 0.00 45 960.5
20260504192506 79 191 12.0 22.0 0.00 0.00 0.00 44 960.5
20260504192005 80 192 7.0 17.0 0.00 0.00 0.00 45 960.5
20260504191505 78 233 9.0 24.0 0.00 0.00 0.00 45 960.6
20260504191005 79 214 11.0 24.0 0.00 0.00 0.00 44 960.7
20260504190506 78 221 11.0 21.0 0.00 0.00 0.00 45 960.7
20260504190004 78 170 11.0 22.0 0.00 0.00 0.00 45 960.7
20260504185503 78 166 12.0 22.0 0.00 0.00 0.00 45 960.6
20260504185003 78 165 11.0 19.0 0.00 0.00 0.00 46 960.7
20260504184502 78 163 9.0 23.0 0.00 0.00 0.00 45 960.8
20260504184002 79 185 9.0 20.0 0.00 0.00 0.00 45 960.8
20260504183504 79 162 11.0 20.0 0.00 0.00 0.00 45 960.8
20260504183005 78 204 11.0 19.0 0.00 0.00 0.00 44 960.9
20260504182501 79 220 7.0 21.0 0.00 0.00 0.00 45 960.9
20260504182100 78 142 8.0 21.0 0.00 0.00 0.00 45 960.8
20260504181603 78 221 8.0 22.0 0.00 0.00 0.00 46 960.9
20260504181058 78 227 10.0 22.0 0.00 0.00 0.00 45 960.9
20260504180557 78 210 8.0 17.0 0.00 0.00 0.00 45 961.0
20260504180115 77 225 11.0 22.0 0.00 0.00 0.00 45 961.0
20260504175554 77 219 13.0 22.0 0.00 0.00 0.00 44 961.2
20260504175057 77 210 9.0 19.0 0.00 0.00 0.00 46 961.1
20260504174553 76 219 13.0 19.0 0.00 0.00 0.00 45 961.2
20260504174051 76 207 13.0 20.0 0.00 0.00 0.00 45 961.3
20260504173550 77 160 10.0 23.0 0.00 0.00 0.00 45 961.3
20260504173102 77 182 9.0 23.0 0.00 0.00 0.00 45 961.3
20260504172549 77 196 8.0 23.0 0.00 0.00 0.00 46 961.4
20260504172048 77 198 12.0 22.0 0.00 0.00 0.00 45 961.5
20260504171548 76 148 8.0 24.0 0.00 0.00 0.00 46 961.5
20260504171046 77 213 7.0 16.0 0.00 0.00 0.00 47 961.5
20260504170544 76 203 11.0 18.0 0.00 0.00 0.00 46 961.5
20260504151012 72 230 8.0 15.0 0.00 0.00 0.00 49 962.6
20260504150512 72 198 8.0 16.0 0.00 0.00 0.00 49 962.6
20260504141056 69 160 8.0 15.0 0.00 0.00 0.00 53 963.2
20260504140555 69 217 8.0 14.0 0.00 0.00 0.00 52 963.2
20260504130543 65 153 5.0 11.0 0.00 0.00 0.00 58 963.4